Time,TemperatureF,DewpointF,PressureIn,WindDirection,WindDirectionDegrees,WindSpeedMPH,WindSpeedGustMPH,Humidity,HourlyPrecipIn,Conditions,Clouds,dailyrainin,SoftwareType,DateUTC
2013-01-16 00:06:00,46.2,46.0,30.10,SE,134,0.0,3.0,99,0.03,,,0.59,weatherlink.com 1.10,2013-01-16 05:06:00,
2013-01-16 00:21:00,46.3,46.0,30.10,SE,134,0.0,0.0,99,0.03,,,0.59,weatherlink.com 1.10,2013-01-16 05:21:00,
2013-01-16 00:36:00,46.9,47.0,30.10,SE,134,2.0,3.0,99,0.03,,,0.60,weatherlink.com 1.10,2013-01-16 05:36:00,
2013-01-16 00:51:00,47.3,47.0,30.09,SE,134,0.0,3.0,99,0.02,,,0.60,weatherlink.com 1.10,2013-01-16 05:51:00,
2013-01-16 01:06:00,46.9,47.0,30.09,SE,134,0.0,0.0,99,0.01,,,0.60,weatherlink.com 1.10,2013-01-16 06:06:00,
2013-01-16 01:21:00,47.1,47.0,30.09,SE,134,0.0,1.0,99,0.01,,,0.60,weatherlink.com 1.10,2013-01-16 06:21:00,
2013-01-16 01:36:00,48.2,48.0,30.09,SE,134,0.0,1.0,99,0.00,,,0.60,weatherlink.com 1.10,2013-01-16 06:36:00,
2013-01-16 01:51:00,48.7,49.0,30.09,SE,134,0.0,0.0,99,0.00,,,0.60,weatherlink.com 1.10,2013-01-16 06:51:00,
2013-01-16 02:06:00,48.8,49.0,30.08,SE,134,0.0,0.0,99,0.00,,,0.60,weatherlink.com 1.10,2013-01-16 07:06:00,
2013-01-16 02:21:00,49.4,49.0,30.08,SE,134,0.0,0.0,99,0.00,,,0.60,weatherlink.com 1.10,2013-01-16 07:21:00,
2013-01-16 02:36:00,49.6,49.0,30.08,SE,134,0.0,0.0,99,0.01,,,0.61,weatherlink.com 1.10,2013-01-16 07:36:00,
2013-01-16 02:51:00,49.9,50.0,30.08,SE,134,0.0,0.0,99,0.01,,,0.61,weatherlink.com 1.10,2013-01-16 07:51:00,
2013-01-16 03:06:00,50.1,50.0,30.08,SE,134,0.0,0.0,99,0.01,,,0.61,weatherlink.com 1.10,2013-01-16 08:06:00,
2013-01-16 03:21:00,50.2,50.0,30.07,SE,134,0.0,0.0,99,0.01,,,0.61,weatherlink.com 1.10,2013-01-16 08:21:00,
2013-01-16 03:37:00,50.2,50.0,30.06,SSE,148,1.0,1.0,99,0.00,,,0.61,weatherlink.com 1.10,2013-01-16 08:37:00,
2013-01-16 03:51:00,50.6,50.0,30.06,SSW,195,1.0,2.0,99,0.01,,,0.62,weatherlink.com 1.10,2013-01-16 08:51:00,
2013-01-16 04:07:00,50.7,51.0,30.05,SSW,195,0.0,0.0,99,0.01,,,0.62,weatherlink.com 1.10,2013-01-16 09:07:00,
2013-01-16 04:22:00,50.8,51.0,30.05,SSW,195,0.0,1.0,99,0.01,,,0.62,weatherlink.com 1.10,2013-01-16 09:22:00,
2013-01-16 04:37:00,51.0,51.0,30.05,SSW,195,0.0,1.0,99,0.01,,,0.62,weatherlink.com 1.10,2013-01-16 09:37:00,
2013-01-16 04:52:00,50.9,51.0,30.05,SSW,195,0.0,0.0,99,0.00,,,0.62,weatherlink.com 1.10,2013-01-16 09:52:00,
2013-01-16 05:07:00,50.7,51.0,30.04,SSW,195,0.0,0.0,99,0.00,,,0.62,weatherlink.com 1.10,2013-01-16 10:07:00,
2013-01-16 05:22:00,50.9,51.0,30.03,SSW,195,0.0,1.0,99,0.00,,,0.62,weatherlink.com 1.10,2013-01-16 10:22:00,
2013-01-16 05:37:00,51.3,51.0,30.04,SSW,195,1.0,2.0,99,0.00,,,0.62,weatherlink.com 1.10,2013-01-16 10:37:00,
2013-01-16 05:52:00,51.4,51.0,30.03,SW,231,0.0,3.0,99,0.00,,,0.62,weatherlink.com 1.10,2013-01-16 10:52:00,
2013-01-16 06:07:00,51.9,52.0,30.04,WSW,245,0.0,3.0,99,0.00,,,0.62,weatherlink.com 1.10,2013-01-16 11:07:00,
2013-01-16 06:22:00,52.0,52.0,30.04,WSW,245,0.0,1.0,99,0.00,,,0.00,weatherlink.com 1.10,2013-01-16 11:22:00,
2013-01-16 06:37:00,52.0,52.0,30.03,WSW,245,0.0,0.0,99,0.01,,,0.01,weatherlink.com 1.10,2013-01-16 11:37:00,
2013-01-16 06:52:00,52.0,52.0,30.04,WSW,245,0.0,2.0,99,0.01,,,0.01,weatherlink.com 1.10,2013-01-16 11:52:00,
2013-01-16 07:07:00,52.2,52.0,30.04,WSW,245,0.0,2.0,99,0.02,,,0.02,weatherlink.com 1.10,2013-01-16 12:07:00,
2013-01-16 07:22:00,52.4,52.0,30.05,WSW,245,0.0,2.0,99,0.04,,,0.04,weatherlink.com 1.10,2013-01-16 12:22:00,
2013-01-16 07:37:00,52.4,52.0,30.05,WSW,245,0.0,1.0,99,0.05,,,0.06,weatherlink.com 1.10,2013-01-16 12:37:00,
2013-01-16 07:52:00,52.4,52.0,30.05,WSW,245,0.0,2.0,99,0.06,,,0.07,weatherlink.com 1.10,2013-01-16 12:52:00,
2013-01-16 08:07:00,52.8,53.0,30.06,WSW,245,0.0,1.0,99,0.05,,,0.07,weatherlink.com 1.10,2013-01-16 13:07:00,
2013-01-16 08:22:00,52.9,53.0,30.07,WSW,245,0.0,1.0,99,0.03,,,0.07,weatherlink.com 1.10,2013-01-16 13:22:00,
2013-01-16 08:37:00,53.0,53.0,30.07,WSW,245,0.0,1.0,99,0.01,,,0.07,weatherlink.com 1.10,2013-01-16 13:37:00,
2013-01-16 08:52:00,53.2,53.0,30.07,WSW,245,0.0,0.0,99,0.00,,,0.07,weatherlink.com 1.10,2013-01-16 13:52:00,
2013-01-16 09:07:00,53.1,53.0,30.07,WSW,245,0.0,0.0,99,0.00,,,0.07,weatherlink.com 1.10,2013-01-16 14:07:00,
2013-01-16 09:22:00,53.1,53.0,30.08,WSW,252,0.0,3.0,99,0.00,,,0.07,weatherlink.com 1.10,2013-01-16 14:22:00,
2013-01-16 09:37:00,52.0,52.0,30.09,WSW,257,4.0,8.0,99,0.00,,,0.07,weatherlink.com 1.10,2013-01-16 14:37:00,
2013-01-16 09:52:00,51.5,51.0,30.10,WSW,238,2.0,9.0,99,0.01,,,0.08,weatherlink.com 1.10,2013-01-16 14:52:00,
2013-01-16 10:07:00,52.0,52.0,30.11,WSW,246,2.0,6.0,99,0.01,,,0.08,weatherlink.com 1.10,2013-01-16 15:07:00,
2013-01-16 10:22:00,52.8,52.0,30.10,WNW,288,0.0,12.0,97,0.01,,,0.08,weatherlink.com 1.10,2013-01-16 15:22:00,
2013-01-16 10:37:00,53.1,52.0,30.10,WNW,285,2.0,6.0,96,0.02,,,0.09,weatherlink.com 1.10,2013-01-16 15:37:00,
2013-01-16 10:52:00,53.2,52.0,30.09,SSE,157,0.0,4.0,96,0.01,,,0.09,weatherlink.com 1.10,2013-01-16 15:52:00,
2013-01-16 11:07:00,53.1,52.0,30.10,South,170,0.0,2.0,97,0.01,,,0.09,weatherlink.com 1.10,2013-01-16 16:07:00,
2013-01-16 11:22:00,53.2,52.0,30.08,SSE,153,3.0,4.0,97,0.01,,,0.09,weatherlink.com 1.10,2013-01-16 16:22:00,
2013-01-16 11:37:00,53.3,53.0,30.07,SSE,156,0.0,2.0,97,0.00,,,0.09,weatherlink.com 1.10,2013-01-16 16:37:00,
2013-01-16 11:52:00,53.9,53.0,30.06,SSE,156,0.0,3.0,98,0.00,,,0.09,weatherlink.com 1.10,2013-01-16 16:52:00,
2013-01-16 12:07:00,54.2,54.0,30.06,SSE,156,0.0,0.0,98,0.00,,,0.09,weatherlink.com 1.10,2013-01-16 17:07:00,
2013-01-16 12:22:00,54.3,54.0,30.06,SSE,156,0.0,1.0,98,0.00,,,0.09,weatherlink.com 1.10,2013-01-16 17:22:00,
2013-01-16 12:37:00,54.2,54.0,30.05,SSE,156,0.0,1.0,98,0.00,,,0.09,weatherlink.com 1.10,2013-01-16 17:37:00,
2013-01-16 12:52:00,54.2,54.0,30.05,SSE,156,0.0,1.0,98,0.01,,,0.10,weatherlink.com 1.10,2013-01-16 17:52:00,
2013-01-16 13:07:00,54.6,54.0,30.06,WSW,257,0.0,2.0,98,0.01,,,0.10,weatherlink.com 1.10,2013-01-16 18:07:00,
2013-01-16 13:22:00,54.8,54.0,30.05,West,265,0.0,3.0,98,0.01,,,0.10,weatherlink.com 1.10,2013-01-16 18:22:00,
2013-01-16 13:37:00,54.9,54.0,30.05,West,265,0.0,3.0,97,0.01,,,0.10,weatherlink.com 1.10,2013-01-16 18:37:00,
2013-01-16 13:52:00,55.6,55.0,30.03,West,265,1.0,2.0,97,0.00,,,0.10,weatherlink.com 1.10,2013-01-16 18:52:00,
2013-01-16 14:07:00,55.8,54.0,30.04,West,265,0.0,2.0,95,0.00,,,0.10,weatherlink.com 1.10,2013-01-16 19:07:00,
2013-01-16 14:22:00,56.0,54.0,30.04,West,265,0.0,2.0,94,0.00,,,0.10,weatherlink.com 1.10,2013-01-16 19:22:00,
2013-01-16 14:37:00,56.1,55.0,30.05,West,265,0.0,1.0,95,0.00,,,0.10,weatherlink.com 1.10,2013-01-16 19:37:00,
2013-01-16 14:52:00,56.0,55.0,30.05,West,265,0.0,1.0,96,0.00,,,0.10,weatherlink.com 1.10,2013-01-16 19:52:00,
2013-01-16 15:07:00,55.8,55.0,30.05,West,265,0.0,1.0,96,0.00,,,0.10,weatherlink.com 1.10,2013-01-16 20:07:00,
2013-01-16 15:22:00,55.8,55.0,30.05,West,265,0.0,1.0,96,0.00,,,0.10,weatherlink.com 1.10,2013-01-16 20:22:00,
2013-01-16 15:37:00,55.7,55.0,30.06,West,265,0.0,0.0,97,0.00,,,0.10,weatherlink.com 1.10,2013-01-16 20:37:00,
2013-01-16 15:52:00,55.4,55.0,30.06,West,265,0.0,0.0,97,0.00,,,0.10,weatherlink.com 1.10,2013-01-16 20:52:00,
2013-01-16 16:07:00,55.1,54.0,30.05,West,265,0.0,0.0,97,0.00,,,0.10,weatherlink.com 1.10,2013-01-16 21:07:00,
2013-01-16 16:22:00,54.9,54.0,30.06,West,265,0.0,1.0,97,0.00,,,0.10,weatherlink.com 1.10,2013-01-16 21:22:00,
2013-01-16 16:37:00,54.9,54.0,30.06,WSW,254,0.0,2.0,97,0.00,,,0.10,weatherlink.com 1.10,2013-01-16 21:37:00,
2013-01-16 16:53:00,54.8,54.0,30.06,WSW,254,0.0,2.0,97,0.00,,,0.10,weatherlink.com 1.10,2013-01-16 21:53:00,
2013-01-16 17:08:00,54.4,53.0,30.06,West,261,0.0,4.0,94,0.00,,,0.10,weatherlink.com 1.10,2013-01-16 22:08:00,
2013-01-16 17:23:00,54.4,52.0,30.07,West,259,1.0,4.0,92,0.00,,,0.10,weatherlink.com 1.10,2013-01-16 22:23:00,
2013-01-16 17:38:00,54.4,53.0,30.07,West,259,0.0,2.0,93,0.00,,,0.10,weatherlink.com 1.10,2013-01-16 22:38:00,
2013-01-16 17:53:00,54.3,53.0,30.07,West,259,0.0,0.0,94,0.00,,,0.10,weatherlink.com 1.10,2013-01-16 22:53:00,
2013-01-16 18:08:00,54.2,53.0,30.07,West,259,0.0,2.0,94,0.00,,,0.10,weatherlink.com 1.10,2013-01-16 23:08:00,
2013-01-16 18:23:00,54.1,53.0,30.07,West,259,0.0,1.0,94,0.00,,,0.10,weatherlink.com 1.10,2013-01-16 23:23:00,
2013-01-16 18:38:00,54.0,53.0,30.06,West,259,0.0,0.0,95,0.00,,,0.10,weatherlink.com 1.10,2013-01-16 23:38:00,
2013-01-16 18:53:00,53.8,52.0,30.07,West,259,0.0,0.0,95,0.00,,,0.10,weatherlink.com 1.10,2013-01-16 23:53:00,
2013-01-16 19:08:00,53.7,53.0,30.07,West,259,0.0,1.0,96,0.00,,,0.10,weatherlink.com 1.10,2013-01-17 00:08:00,
2013-01-16 19:23:00,53.5,52.0,30.08,West,259,0.0,0.0,96,0.00,,,0.10,weatherlink.com 1.10,2013-01-17 00:23:00,
2013-01-16 19:38:00,53.2,52.0,30.08,West,259,0.0,3.0,96,0.00,,,0.10,weatherlink.com 1.10,2013-01-17 00:38:00,
2013-01-16 19:53:00,53.1,52.0,30.07,WSW,243,0.0,2.0,96,0.00,,,0.10,weatherlink.com 1.10,2013-01-17 00:53:00,
2013-01-16 20:08:00,53.0,52.0,30.07,WSW,243,1.0,2.0,97,0.00,,,0.10,weatherlink.com 1.10,2013-01-17 01:08:00,
2013-01-16 20:23:00,52.9,52.0,30.07,SW,234,0.0,2.0,97,0.00,,,0.10,weatherlink.com 1.10,2013-01-17 01:23:00,
2013-01-16 20:38:00,52.8,52.0,30.07,SW,234,0.0,0.0,97,0.00,,,0.10,weatherlink.com 1.10,2013-01-17 01:38:00,
2013-01-16 20:53:00,52.7,52.0,30.07,SW,234,0.0,0.0,97,0.00,,,0.10,weatherlink.com 1.10,2013-01-17 01:53:00,
2013-01-16 21:08:00,52.6,52.0,30.07,SW,234,0.0,2.0,98,0.00,,,0.10,weatherlink.com 1.10,2013-01-17 02:08:00,
2013-01-16 21:23:00,52.5,52.0,30.07,WSW,251,0.0,3.0,98,0.00,,,0.10,weatherlink.com 1.10,2013-01-17 02:23:00,
2013-01-16 21:38:00,52.5,52.0,30.07,WSW,243,3.0,3.0,98,0.00,,,0.10,weatherlink.com 1.10,2013-01-17 02:38:00,
2013-01-16 21:53:00,52.4,52.0,30.07,WSW,243,0.0,0.0,98,0.00,,,0.10,weatherlink.com 1.10,2013-01-17 02:53:00,
2013-01-16 22:08:00,52.4,52.0,30.07,WSW,243,0.0,0.0,98,0.00,,,0.10,weatherlink.com 1.10,2013-01-17 03:08:00,
2013-01-16 22:23:00,52.3,52.0,30.07,WSW,243,0.0,0.0,98,0.01,,,0.11,weatherlink.com 1.10,2013-01-17 03:23:00,
2013-01-16 22:38:00,52.2,52.0,30.06,WSW,243,0.0,1.0,98,0.02,,,0.12,weatherlink.com 1.10,2013-01-17 03:38:00,
2013-01-16 22:53:00,52.1,52.0,30.06,WSW,243,0.0,0.0,98,0.03,,,0.13,weatherlink.com 1.10,2013-01-17 03:53:00,
2013-01-16 23:08:00,52.0,52.0,30.06,WSW,243,0.0,0.0,98,0.05,,,0.15,weatherlink.com 1.10,2013-01-17 04:08:00,
2013-01-16 23:23:00,51.9,51.0,30.05,WSW,243,0.0,2.0,98,0.05,,,0.16,weatherlink.com 1.10,2013-01-17 04:23:00,
2013-01-16 23:38:00,51.9,51.0,30.05,WSW,243,0.0,0.0,98,0.05,,,0.17,weatherlink.com 1.10,2013-01-17 04:38:00,
2013-01-16 23:53:00,51.9,51.0,30.05,WSW,243,0.0,0.0,98,0.04,,,0.17,weatherlink.com 1.10,2013-01-17 04:53:00,